N3PB Weather Reports


Display with metric or nautical units.
time (UTC)temp
F
wind
direction
speed
MPH
gust
MPH
rain 1hr
in
rain 24hr
in
rain mn
in
humidity
%
barometer
mb
20260510190143 77 286 0.0 0.0 0.00 0.00 0.00 47 1015.3
20260510185640 77 295 0.0 0.0 0.00 0.00 0.00 44 1015.3
20260510185140 77 312 0.0 0.0 0.00 0.00 0.00 46 1015.2
20260510184640 77 275 0.0 0.0 0.00 0.00 0.00 44 1015.1
20260510184140 78 231 0.0 0.0 0.00 0.00 0.00 43 1015.0
20260510183640 79 216 0.0 0.0 0.00 0.00 0.00 43 1014.9
20260510183149 79 337 0.0 0.0 0.00 0.00 0.00 46 1015.0
20260510182640 78 279 0.0 0.0 0.00 0.00 0.00 46 1014.9
20260510182143 78 229 0.0 0.0 0.00 0.00 0.00 46 1015.0
20260510181640 78 342 0.0 0.0 0.00 0.00 0.00 43 1015.2
20260510181140 78 254 0.0 0.0 0.00 0.00 0.00 45 1015.0
20260510180643 78 190 0.0 0.0 0.00 0.00 0.00 44 1015.0
20260510180141 78 242 0.0 0.0 0.00 0.00 0.00 42 1015.1
20260510175640 78 327 0.0 0.0 0.00 0.00 0.00 46 1015.1
20260510175140 78 263 0.0 0.0 0.00 0.00 0.00 48 1015.1
20260510174640 78 250 0.0 0.0 0.00 0.00 0.00 45 1015.2
20260510174143 77 313 0.0 0.0 0.00 0.00 0.00 48 1015.1
20260510173640 77 302 0.0 0.0 0.00 0.00 0.00 44 1015.1
20260510173146 77 272 0.0 0.0 0.00 0.00 0.00 45 1015.1
20260510172643 76 90 0.0 0.0 0.00 0.00 0.00 48 1015.1
20260510172149 76 250 0.0 0.0 0.00 0.00 0.00 50 1015.1
20260510171643 75 210 0.0 0.0 0.00 0.00 0.00 46 1015.2
20260510171143 75 175 0.0 0.0 0.00 0.00 0.00 47 1015.2
20260510170646 76 185 0.0 0.0 0.00 0.00 0.00 48 1015.3
20260510170143 75 222 0.0 0.0 0.00 0.00 0.00 47 1015.3
20260510165646 75 226 0.0 0.0 0.00 0.00 0.00 48 1015.2
20260510165140 75 218 0.0 0.0 0.00 0.00 0.00 49 1015.2
20260510164643 75 313 0.0 0.0 0.00 0.00 0.00 49 1015.3
20260510164143 75 215 0.0 0.0 0.00 0.00 0.00 53 1015.2
20260510163640 75 190 0.0 0.0 0.00 0.00 0.00 51 1015.4
20260510163143 75 187 0.0 0.0 0.00 0.00 0.00 50 1015.3
20260510162640 74 252 0.0 0.0 0.00 0.00 0.00 52 1015.4
20260510162140 74 90 0.0 0.0 0.00 0.00 0.00 51 1015.3
20260510161640 74 272 0.0 0.0 0.00 0.00 0.00 53 1015.3
20260510161143 74 303 0.0 0.0 0.00 0.00 0.00 53 1015.2
20260510160640 74 316 0.0 0.0 0.00 0.00 0.00 53 1015.1
20260510160146 74 244 0.0 0.0 0.00 0.00 0.00 56 1015.1
20260510155640 73 314 0.0 0.0 0.00 0.00 0.00 55 1015.2
20260510155149 73 304 0.0 0.0 0.00 0.00 0.00 60 1015.3
20260510154640 73 306 0.0 0.0 0.00 0.00 0.00 55 1015.3
20260510154140 72 205 0.0 0.0 0.00 0.00 0.00 56 1015.2
20260510153643 72 188 0.0 0.0 0.00 0.00 0.00 56 1015.2
20260510153140 73 226 0.0 0.0 0.00 0.00 0.00 56 1015.1
20260510152640 72 252 0.0 0.0 0.00 0.00 0.00 56 1015.3
20260510152140 72 198 0.0 0.0 0.00 0.00 0.00 56 1015.2
20260510151646 72 302 0.0 0.0 0.00 0.00 0.00 60 1015.1
20260510151143 72 251 0.0 0.0 0.00 0.00 0.00 58 1015.2
20260510150640 72 276 0.0 0.0 0.00 0.00 0.00 62 1015.1
20260510150143 71 286 0.0 0.0 0.00 0.00 0.00 62 1015.1
20260510145640 71 291 0.0 0.0 0.00 0.00 0.00 65 1015.2
20260510145143 70 336 0.0 0.0 0.00 0.00 0.00 63 1015.1
20260510144646 70 325 0.0 0.0 0.00 0.00 0.00 63 1015.0
20260510144140 70 175 0.0 0.0 0.00 0.00 0.00 64 1015.1
20260510143640 70 290 0.0 0.0 0.00 0.00 0.00 65 1015.0
20260510143140 70 237 0.0 0.0 0.00 0.00 0.00 64 1015.0
20260510142640 70 184 0.0 0.0 0.00 0.00 0.00 64 1015.1
20260510142140 69 150 0.0 0.0 0.00 0.00 0.00 66 1015.2
20260510141640 69 140 0.0 0.0 0.00 0.00 0.00 70 1015.2
20260510141143 68 48 0.0 0.0 0.00 0.00 0.00 71 1015.1
20260510140640 67 200 0.0 0.0 0.00 0.00 0.00 71 1015.1
20260510140143 67 250 0.0 0.0 0.00 0.00 0.00 74 1015.1
20260510135640 66 251 0.0 0.0 0.00 0.00 0.00 74 1015.0
20260510135140 65 252 0.0 0.0 0.00 0.00 0.00 75 1015.2
20260510134646 64 252 0.0 0.0 0.00 0.00 0.00 76 1015.3
20260510134143 64 252 0.0 0.0 0.00 0.00 0.00 79 1015.3
20260510133643 63 252 0.0 0.0 0.00 0.00 0.00 78 1015.4
20260510133143 63 252 0.0 0.0 0.00 0.00 0.00 80 1015.2
20260510132649 62 252 0.0 0.0 0.00 0.00 0.00 81 1015.3
20260510132146 62 252 0.0 0.0 0.00 0.00 0.00 82 1015.3
20260510131640 61 252 0.0 0.0 0.00 0.00 0.00 84 1015.2
20260510131140 60 252 0.0 0.0 0.00 0.00 0.00 85 1015.3
20260510130639 59 252 0.0 0.0 0.00 0.00 0.00 87 1015.3
20260510130140 58 252 0.0 0.0 0.00 0.00 0.00 90 1015.2
20260510125649 57 252 0.0 0.0 0.00 0.00 0.00 93 1015.3
20260510125142 56 252 0.0 0.0 0.00 0.00 0.00 95 1015.3
20260510124643 54 252 0.0 0.0 0.00 0.00 0.00 98 1015.4
20260510124149 53 252 0.0 0.0 0.00 0.00 0.00 99 1015.4
20260510123640 52 252 0.0 0.0 0.00 0.00 0.00 99 1015.3
20260510123146 51 252 0.0 0.0 0.00 0.00 0.00 99 1015.3
20260510122642 50 252 0.0 0.0 0.00 0.00 0.00 99 1015.3
20260510122140 49 252 0.0 0.0 0.00 0.00 0.00 99 1015.3
20260510121640 48 252 0.0 0.0 0.00 0.00 0.00 98 1015.2
20260510121140 47 252 0.0 0.0 0.00 0.00 0.00 96 1015.2
20260510120643 46 252 0.0 0.0 0.00 0.00 0.00 95 1015.2
20260510120140 46 252 0.0 0.0 0.00 0.00 0.00 95 1015.2
20260510115645 45 252 0.0 0.0 0.00 0.00 0.00 94 1015.2
20260510115142 45 252 0.0 0.0 0.00 0.00 0.00 94 1015.3
20260510114643 45 252 0.0 0.0 0.00 0.00 0.00 93 1015.3
20260510114140 45 252 0.0 0.0 0.00 0.00 0.00 93 1015.2
20260510113640 44 252 0.0 0.0 0.00 0.00 0.00 92 1015.2
20260510113139 44 252 0.0 0.0 0.00 0.00 0.00 91 1015.1
20260510112640 44 252 0.0 0.0 0.00 0.00 0.00 91 1014.9
20260510112139 44 252 0.0 0.0 0.00 0.00 0.00 90 1014.9
20260510111640 44 252 0.0 0.0 0.00 0.00 0.00 90 1014.9
20260510111143 44 252 0.0 0.0 0.00 0.00 0.00 89 1014.8
20260510110643 44 252 0.0 0.0 0.00 0.00 0.00 89 1014.8
20260510110143 44 252 0.0 0.0 0.00 0.00 0.00 88 1014.5
20260510105642 44 252 0.0 0.0 0.00 0.00 0.00 88 1014.4
20260510105139 44 252 0.0 0.0 0.00 0.00 0.00 88 1014.4
20260510104643 44 252 0.0 0.0 0.00 0.00 0.00 88 1014.4
20260510104140 45 252 0.0 0.0 0.00 0.00 0.00 87 1014.3
20260510103639 45 252 0.0 0.0 0.00 0.00 0.00 87 1014.3
20260510103139 45 252 0.0 0.0 0.00 0.00 0.00 87 1014.3
20260510102640 45 252 0.0 0.0 0.00 0.00 0.00 86 1014.3
20260510102140 45 252 0.0 0.0 0.00 0.00 0.00 86 1014.3
20260510101642 46 252 0.0 0.0 0.00 0.00 0.00 86 1014.2
20260510101142 46 252 0.0 0.0 0.00 0.00 0.00 85 1014.1
20260510100640 46 252 0.0 0.0 0.00 0.00 0.00 85 1014.1
20260510100143 47 252 0.0 0.0 0.00 0.00 0.00 85 1014.1
20260510095642 47 252 0.0 0.0 0.00 0.00 0.00 85 1014.2
20260510095139 48 252 0.0 0.0 0.00 0.00 0.00 85 1014.1
20260510094645 48 252 0.0 0.0 0.00 0.00 0.00 85 1014.0
20260510094140 48 252 0.0 0.0 0.00 0.00 0.00 86 1014.1
20260510093639 49 252 0.0 0.0 0.00 0.00 0.00 88 1014.0
20260510093143 49 252 0.0 0.0 0.00 0.00 0.00 90 1014.1
20260510092645 49 252 0.0 0.0 0.00 0.00 0.00 90 1014.1
20260510092146 50 252 0.0 0.0 0.00 0.00 0.00 90 1014.0
20260510091643 50 252 0.0 0.0 0.00 0.00 0.00 89 1014.0
20260510091139 50 252 0.0 0.0 0.00 0.00 0.00 90 1013.9
20260510090643 50 252 0.0 0.0 0.00 0.00 0.00 90 1014.0
20260510090142 50 252 0.0 0.0 0.00 0.00 0.00 91 1013.9
20260510085640 50 252 0.0 0.0 0.00 0.00 0.00 90 1013.9
20260510085145 50 252 0.0 0.0 0.00 0.00 0.00 90 1013.9
20260510084639 50 252 0.0 0.0 0.00 0.00 0.00 89 1013.9
20260510084143 50 252 0.0 0.0 0.00 0.00 0.00 91 1013.9
20260510083640 50 252 0.0 0.0 0.00 0.00 0.00 92 1014.0
20260510083139 50 252 0.0 0.0 0.00 0.00 0.00 93 1013.9
20260510082642 49 252 0.0 0.0 0.00 0.00 0.00 93 1013.9
20260510082140 49 252 0.0 0.0 0.00 0.00 0.00 93 1013.9
20260510081642 49 252 0.0 0.0 0.00 0.00 0.00 93 1014.0
20260510081139 48 252 0.0 0.0 0.00 0.00 0.00 93 1014.0
20260510080646 47 252 0.0 0.0 0.00 0.00 0.00 90 1013.9
20260510080143 47 252 0.0 0.0 0.00 0.00 0.00 88 1013.9
20260510075646 47 252 0.0 0.0 0.00 0.00 0.00 88 1013.9
20260510075142 47 252 0.0 0.0 0.00 0.00 0.00 88 1014.0
20260510074648 47 252 0.0 0.0 0.00 0.00 0.00 88 1014.0
20260510074140 47 252 0.0 0.0 0.00 0.00 0.00 87 1014.0
20260510073646 48 252 0.0 0.0 0.00 0.00 0.00 87 1014.0
20260510073142 48 252 0.0 0.0 0.00 0.00 0.00 87 1014.0
20260510072642 48 252 0.0 0.0 0.00 0.00 0.00 87 1014.0
20260510072143 48 252 0.0 0.0 0.00 0.00 0.00 87 1013.9
20260510071640 48 252 0.0 0.0 0.00 0.00 0.00 86 1013.7
20260510071139 48 252 0.0 0.0 0.00 0.00 0.00 86 1013.7
20260510070648 49 252 0.0 0.0 0.00 0.00 0.00 86 1013.7
20260510070149 49 252 0.0 0.0 0.00 0.00 0.00 86 1013.8
20260510065640 49 252 0.0 0.0 0.00 0.00 0.00 86 1013.8
20260510065139 49 252 0.0 0.0 0.00 0.00 0.00 85 1013.8
20260510064639 49 252 0.0 0.0 0.00 0.00 0.00 85 1013.8
20260510064142 50 252 0.0 0.0 0.00 0.00 0.00 84 1013.9
20260510063640 50 252 0.0 0.0 0.00 0.00 0.00 84 1014.0
20260510063145 50 252 0.0 0.0 0.00 0.00 0.00 84 1014.0
20260510062642 50 252 0.0 0.0 0.00 0.00 0.00 84 1014.1
20260510062145 51 252 0.0 0.0 0.00 0.00 0.00 83 1014.2
20260510061639 51 252 0.0 0.0 0.00 0.00 0.00 84 1014.1
20260510061139 51 252 0.0 0.0 0.00 0.00 0.00 84 1014.1
20260510060639 51 252 0.0 0.0 0.00 0.00 0.00 85 1014.0
20260510060139 51 252 0.0 0.0 0.00 0.00 0.00 85 1014.0
20260510055640 51 252 0.0 0.0 0.00 0.00 0.00 85 1014.1
20260510055148 51 252 0.0 0.0 0.00 0.00 0.00 84 1014.1
20260510054642 51 252 0.0 0.0 0.00 0.00 0.00 83 1014.2
20260510054142 51 252 0.0 0.0 0.00 0.00 0.00 83 1014.3
20260510053639 51 252 0.0 0.0 0.00 0.00 0.00 83 1014.2
20260510053142 51 252 0.0 0.0 0.00 0.00 0.00 83 1014.3
20260510052639 51 252 0.0 0.0 0.00 0.00 0.00 82 1014.2
20260510052139 52 252 0.0 0.0 0.00 0.00 0.00 82 1014.4
20260510051645 52 252 0.0 0.0 0.00 0.00 0.00 82 1014.4
20260510051142 52 252 0.0 0.0 0.00 0.00 0.00 83 1014.4
20260510050645 52 252 0.0 0.0 0.00 0.00 0.00 82 1014.4
20260510050142 52 252 0.0 0.0 0.00 0.00 0.00 82 1014.4
20260510045639 52 252 0.0 0.0 0.00 0.00 0.00 81 1014.5
20260510045139 52 252 0.0 0.0 0.00 0.00 0.00 81 1014.5
20260510044639 52 252 0.0 0.0 0.00 0.00 0.00 80 1014.4
20260510044142 53 252 0.0 0.0 0.00 0.00 0.00 80 1014.5
20260510043639 53 252 0.0 0.0 0.00 0.00 0.00 79 1014.5
20260510043139 53 252 0.0 0.0 0.00 0.00 0.00 79 1014.6
20260510042639 53 252 0.0 0.0 0.00 0.00 0.00 79 1014.6
20260510042139 53 252 0.0 0.0 0.00 0.00 0.00 79 1014.7
20260510041639 53 252 0.0 0.0 0.00 0.00 0.00 79 1014.5
20260510041142 53 252 0.0 0.0 0.00 0.00 0.00 79 1014.6
20260510040642 54 252 0.0 0.0 0.00 0.00 0.00 79 1014.5
20260510040142 54 252 0.0 0.0 0.00 0.00 0.00 78 1014.6
20260510035642 54 252 0.0 0.0 0.00 0.00 0.00 77 1014.5
20260510035139 54 252 0.0 0.0 0.00 0.00 0.00 77 1014.4
20260510034639 54 252 0.0 0.0 0.00 0.00 0.00 77 1014.4
20260510034142 55 251 0.0 0.0 0.00 0.00 0.00 76 1014.4
20260510033645 55 251 0.0 0.0 0.00 0.00 0.00 76 1014.4
20260510033142 56 251 0.0 0.0 0.00 0.00 0.00 75 1014.5
20260510032642 56 251 0.0 0.0 0.00 0.00 0.00 75 1014.5
20260510032139 56 251 0.0 0.0 0.00 0.00 0.00 74 1014.5
20260510031645 56 251 0.0 0.0 0.00 0.00 0.00 75 1014.4
20260510031142 56 251 0.0 0.0 0.00 0.00 0.00 75 1014.4
20260510030642 56 251 0.0 0.0 0.00 0.00 0.00 75 1014.5
20260510030142 56 251 0.0 0.0 0.00 0.00 0.00 76 1014.4
20260510025639 56 251 0.0 0.0 0.00 0.00 0.00 76 1014.4
20260510025145 56 251 0.0 0.0 0.00 0.00 0.00 76 1014.6
20260510024642 56 251 0.0 0.0 0.00 0.00 0.00 76 1014.5
20260510024142 56 251 0.0 0.0 0.00 0.00 0.00 75 1014.5
20260510023645 56 251 0.0 0.0 0.00 0.00 0.00 75 1014.4
20260510023139 56 251 0.0 0.0 0.00 0.00 0.00 75 1014.4
20260510022639 56 251 0.0 0.0 0.00 0.00 0.00 75 1014.4
20260510022139 56 251 0.0 0.0 0.00 0.00 0.00 75 1014.4
20260510021648 56 250 0.0 0.0 0.00 0.00 0.00 74 1014.3
20260510021148 56 250 0.0 0.0 0.00 0.00 0.00 74 1014.2
20260510020639 56 250 0.0 0.0 0.00 0.00 0.00 74 1014.1
20260510020148 56 250 0.0 0.0 0.00 0.00 0.00 74 1014.1
20260510015639 57 250 0.0 0.0 0.00 0.00 0.00 73 1014.0
20260510015139 57 250 0.0 0.0 0.00 0.00 0.00 73 1014.0
20260510014648 57 250 0.0 0.0 0.00 0.00 0.00 73 1013.9
20260510014139 57 250 0.0 0.0 0.00 0.00 0.00 72 1013.7
20260510013639 57 250 0.0 0.0 0.00 0.00 0.00 72 1013.6
20260510013142 57 249 0.0 0.0 0.00 0.00 0.00 71 1013.5
20260510012642 57 248 0.0 0.0 0.00 0.00 0.00 71 1013.3
20260510012139 58 248 0.0 0.0 0.00 0.00 0.00 71 1013.2
20260510011639 58 248 0.0 0.0 0.00 0.00 0.00 71 1013.0
20260510011145 58 248 0.0 0.0 0.00 0.00 0.00 71 1013.1
20260510010639 58 244 0.0 0.0 0.00 0.00 0.00 70 1013.0
20260510010142 58 244 0.0 0.0 0.00 0.00 0.00 70 1013.0
20260510005642 59 244 0.0 0.0 0.00 0.00 0.00 69 1012.8
20260510005139 59 244 0.0 0.0 0.00 0.00 0.00 69 1012.8
20260510004642 59 244 0.0 0.0 0.00 0.00 0.00 68 1012.9
20260510004142 60 244 0.0 0.0 0.00 0.00 0.00 68 1012.7
20260510003639 60 244 0.0 0.0 0.00 0.00 0.00 67 1012.7
20260510003139 61 243 0.0 0.0 0.00 0.00 0.00 66 1012.7
20260510002639 61 243 0.0 0.0 0.00 0.00 0.00 65 1012.6
20260510002142 62 243 0.0 0.0 0.00 0.00 0.00 64 1012.6
20260510001642 62 243 0.0 0.0 0.00 0.00 0.00 63 1012.5
20260510001139 63 243 0.0 0.0 0.00 0.00 0.00 62 1012.3
20260510000642 63 243 0.0 0.0 0.00 0.00 0.00 61 1012.3
20260510000139 64 243 0.0 0.0 0.00 0.00 0.00 60 1012.2
20260509235645 64 243 0.0 0.0 0.00 0.00 0.00 59 1012.0
20260509235142 65 243 0.0 0.0 0.00 0.00 0.00 57 1011.9
20260509234639 65 243 0.0 0.0 0.00 0.00 0.00 56 1011.9
20260509234145 66 242 0.0 0.0 0.00 0.00 0.00 57 1011.8
20260509233642 66 243 0.0 0.0 0.00 0.00 0.00 56 1011.8
20260509233142 67 242 0.0 0.0 0.00 0.00 0.00 55 1011.6
20260509232639 67 242 0.0 0.0 0.00 0.00 0.00 54 1011.5
20260509232139 67 242 0.0 0.0 0.00 0.00 0.00 53 1011.5
20260509231645 68 61 0.0 0.0 0.00 0.00 0.00 53 1011.5
20260509231147 68 60 0.0 0.0 0.00 0.00 0.00 52 1011.4
20260509230639 68 69 0.0 0.0 0.00 0.00 0.00 52 1011.3
20260509230139 69 234 0.0 0.0 0.00 0.00 0.00 50 1011.3
20260509225645 69 212 0.0 0.0 0.00 0.00 0.00 50 1011.3
20260509225138 70 331 0.0 0.0 0.00 0.00 0.00 49 1011.2
20260509224639 70 197 0.0 0.0 0.00 0.00 0.00 49 1011.2
20260509224142 71 300 0.0 0.0 0.00 0.00 0.00 49 1011.2
20260509223648 71 301 0.0 0.0 0.00 0.00 0.00 49 1011.2
20260509223139 71 288 0.0 0.0 0.00 0.00 0.00 49 1011.2
20260509222639 71 302 0.0 0.0 0.00 0.00 0.00 49 1011.2
20260509222139 71 235 0.0 0.0 0.00 0.00 0.00 49 1011.1
20260509221638 71 271 0.0 0.0 0.00 0.00 0.00 49 1011.2
20260509221138 72 213 0.0 0.0 0.00 0.00 0.00 48 1011.2
20260509220642 72 192 0.0 0.0 0.00 0.00 0.00 48 1011.0
20260509220145 73 318 0.0 0.0 0.00 0.00 0.00 48 1011.0
20260509215638 73 259 0.0 0.0 0.00 0.00 0.00 47 1010.9
20260509215145 73 120 0.0 0.0 0.00 0.00 0.00 47 1010.9
20260509214639 72 273 0.0 0.0 0.00 0.00 0.00 49 1010.8
20260509214139 72 281 0.0 0.0 0.00 0.00 0.00 48 1010.8
20260509213645 72 244 0.0 0.0 0.00 0.00 0.00 47 1010.7
20260509213139 72 293 0.0 0.0 0.00 0.00 0.00 47 1010.7
20260509212645 72 267 0.0 0.0 0.00 0.00 0.00 47 1010.5
20260509212139 72 325 0.0 0.0 0.00 0.00 0.00 46 1010.3
20260509211639 72 311 0.0 0.0 0.00 0.00 0.00 46 1010.4
20260509211139 71 268 0.0 0.0 0.00 0.00 0.00 48 1010.3
20260509210639 71 182 0.0 0.0 0.00 0.00 0.00 50 1010.1
20260509210139 71 173 0.0 0.0 0.00 0.00 0.00 48 1010.2
20260509205645 71 285 0.0 0.0 0.00 0.00 0.00 52 1010.1
20260509205145 72 290 0.0 0.0 0.00 0.00 0.00 52 1010.1
20260509204639 72 291 0.0 0.0 0.00 0.00 0.00 47 1010.0
20260509204139 72 232 0.0 0.0 0.00 0.00 0.00 48 1010.0
20260509203641 72 285 0.0 0.0 0.00 0.00 0.00 48 1009.8
20260509203138 72 279 0.0 0.0 0.00 0.00 0.00 49 1009.8
20260509202642 73 197 0.0 0.0 0.00 0.00 0.00 47 1009.8
20260509202142 73 211 0.0 0.0 0.00 0.00 0.00 47 1009.9
20260509201638 73 257 0.0 0.0 0.00 0.00 0.00 47 1009.7
20260509201139 73 273 0.0 0.0 0.00 0.00 0.00 48 1009.7
20260509200639 72 329 0.0 0.0 0.00 0.00 0.00 48 1009.7
20260509200142 71 300 0.0 0.0 0.00 0.00 0.00 50 1009.5
20260509195644 71 324 0.0 0.0 0.00 0.00 0.00 47 1009.3
20260509195141 71 252 0.0 0.0 0.00 0.00 0.00 47 1009.5
20260509194642 72 202 0.0 0.0 0.00 0.00 0.00 46 1009.5
20260509194145 72 261 0.0 0.0 0.00 0.00 0.00 46 1009.5
20260509193639 73 283 0.0 0.0 0.00 0.00 0.00 47 1009.3
20260509193138 73 302 0.0 0.0 0.00 0.00 0.00 47 1009.4
20260509192638 73 319 0.0 0.0 0.00 0.00 0.00 45 1009.2
20260509192139 73 96 0.0 0.0 0.00 0.00 0.00 50 1009.1
20260509191642 72 35 0.0 0.0 0.00 0.00 0.00 51 1009.2
20260509191141 72 306 0.0 0.0 0.00 0.00 0.00 47 1009.4
20260509190638 72 260 0.0 0.0 0.00 0.00 0.00 46 1009.3